Weather in Chkalovskiy

Russia / Republic of Kalmykia     47°14′24″N   44°52′22″E
temp.,
°C
wind,
m/s
gust,
m/s
humid.,
%
clouds,
%
prec.,
mm/h
press.,
hPa
HPBL,
m
23 april, fri
fri2300:00+14w4666100 0.0 1022144
03:00+13wnw5880100 0.3 1022202
06:00+12nw4782100 0.1 1022384
09:00+12w3484100 0.4 1023312
12:00+14wnw347174 1.3 1022905
15:00+17wnw5848100 2.1 10212072
18:00+15w586016 0.0 1020379
21:00+12w35735 0.0 102075
24 april, sat
sat2400:00+11w357142 0.0 101966
03:00+10wsw3474100 0.0 101854
06:00+11wsw3570100 0.0 1018117
09:00+14w786798 0.1 1018656
12:00+13sw3868100 0.2 1018716
15:00+15wsw6106639 0.4 10171127
18:00+15w7116485 0.1 1017912
21:00+10wnw36840 0.1 1020155
25 april, sun
sun2500:00+8wsw36815 0.0 1020107
03:00+8wsw51079100 0.0 1021221
06:00+7w4878100 0.0 1022260
09:00+11nw555859 0.0 1022797
12:00+14wnw3443100 0.0 10221572
15:00+15wnw2341100 0.0 10211707
18:00+14ne1251100 0.0 1020137
21:00+12se1257100 0.0 1019117
26 april, mon
mon2600:00+10ene1469100 0.9 1019335
03:00+8ene6987100 3.9 1017431
06:00+8ene5988100 0.7 1016430
09:00+8ene5786100 0.8 1014442
12:00+10nne5682100 0.1 1013539
15:00+9n6783100 0.1 1012398
18:00+7nne5687100 0.0 1012336
21:00+7nnw4589100 0.0 1013238
27 april, tue
tue2700:00+7nw2588100 0.0 1013239
03:00+8wnw4989100 0.0 1014428
06:00+8wnw48855 0.0 1015417
09:00+11wnw787397 0.0 1016962
12:00+11w566286 0.0 10171202
15:00+14wnw55425 0.0 10161744
18:00+13wnw454926 0.0 1016285
21:00+10nw2254100 0.0 101726